Wind_Speed
16 16 15 14 13 13 13 13 14 15 13 12 11 11 12 11 10 10 10 10 10 9 8 7 6 6 5 4 2 1 2 2 3 3 4 4 5 6 7 8 9 11 12 13
15 15 14 14 13 12 12 11 12 14 13 11 10 9 10 10 11 10 10 10 9 9 8 7 6 6 5 4 3 2 2 2 2 3 3 4 5 6 7 9 10 10 12 13
13 13 12 12 12 13 12 11 11 11 11 9 8 7 8 9 9 10 11 10 10 8 8 7 6 6 5 4 4 3 3 2 3 3 4 4 6 7 8 9 9 10 11 12
11 11 11 12 13 13 12 11 10 10 10 8 7 6 8 8 9 10 10 9 8 8 7 7 6 6 6 5 4 4 3 3 3 3 4 5 6 7 8 9 10 10 11 12
10 10 11 12 13 13 12 11 10 9 8 6 5 5 6 7 8 10 10 9 7 7 7 7 6 6 6 6 5 5 4 4 4 4 5 6 7 7 8 9 10 11 11 12
9 10 10 12 13 12 12 11 9 8 7 5 5 5 6 7 8 9 9 8 8 7 7 7 7 7 7 7 7 6 6 6 6 6 6 7 8 8 9 10 10 11 12 13
7 8 8 9 12 12 12 12 10 7 5 3 5 5 7 7 8 8 8 8 7 7 7 7 7 7 8 8 8 7 7 7 7 7 8 8 9 9 10 11 11 12 13 14
3 5 6 8 10 11 11 10 9 7 6 5 4 5 7 7 7 7 8 8 8 8 8 8 8 8 8 8 8 8 8 8 9 9 9 10 10 11 11 12 12 13 14 14
4 4 6 7 9 10 10 10 9 7 6 5 5 6 7 7 8 8 8 8 8 8 8 8 9 9 9 9 9 9 9 10 10 10 11 11 11 12 12 13 13 14 14 15
6 6 6 7 9 10 10 10 10 8 7 6 5 6 9 8 8 9 9 9 9 9 9 9 9 10 10 10 10 10 11 11 12 12 12 12 12 12 13 13 14 15 15 15
6 6 7 8 9 9 11 11 11 11 9 7 7 8 10 9 9 9 9 9 9 10 10 10 10 10 11 11 11 12 12 12 13 13 13 13 13 14 14 15 15 16 16 16
7 7 7 7 7 9 9 11 12 11 10 10 7 7 10 10 10 10 10 10 10 10 11 11 11 11 12 12 12 12 13 14 14 14 14 14 15 15 16 16 17 17 18 18
7 6 6 6 7 8 10 10 10 10 9 10 10 9 10 11 12 12 11 12 12 11 11 11 12 13 13 13 13 13 14 14 15 15 15 16 16 17 17 18 18 19 19 19
7 6 6 6 7 9 10 10 10 11 10 10 11 10 11 12 13 13 12 12 13 12 12 12 13 13 14 14 15 15 15 15 16 16 17 17 18 18 19 19 20 20 20 20
8 8 8 8 9 10 11 11 11 12 12 12 12 13 13 15 16 15 14 13 14 14 13 14 14 14 15 15 15 16 16 16 17 17 18 18 19 20 20 21 21 21 21 21
10 10 10 9 10 11 11 12 13 13 13 14 15 15 15 16 17 16 16 15 15 16 16 15 15 15 16 16 16 16 16 17 18 18 19 20 21 21 22 22 22 23 23 23
11 11 11 10 10 12 12 12 13 14 15 16 17 16 17 17 17 17 16 17 17 17 18 17 16 16 17 17 17 18 18 19 19 20 20 21 22 22 23 23 24 24 24 24
13 13 13 13 12 13 13 15 15 16 16 17 17 17 18 18 18 18 18 17 17 17 17 17 17 17 18 18 19 19 20 20 20 21 21 22 23 23 24 24 24 24 24 25
15 16 16 16 16 15 15 16 16 17 16 17 17 18 19 19 19 19 19 18 18 18 18 18 18 19 19 20 20 20 21 21 22 22 23 23 24 24 24 25 25 26 26 27
17 18 18 18 18 17 18 18 18 17 18 17 18 18 19 20 20 20 19 19 19 19 19 19 19 20 20 21 21 21 22 22 23 24 24 25 25 25 25 26 27 28 28 28
18 18 19 19 19 20 20 20 18 19 19 19 19 19 19 20 21 20 20 20 20 20 20 20 21 21 21 22 22 23 23 23 24 24 25 26 26 26 27 28 29 29 30 30
21 20 20 20 21 22 22 21 21 21 21 21 20 20 20 21 22 21 21 22 21 21 21 22 22 22 23 23 23 24 24 25 25 25 26 27 28 28 29 30 31 31 32 32
22 22 22 23 24 24 23 23 23 23 23 23 22 22 22 22 22 23 23 23 23 23 23 23 23 24 24 24 25 25 25 26 27 28 28 29 30 30 31 32 32 33 34 34
24 25 24 24 25 26 25 25 25 25 25 25 24 24 24 24 24 24 25 25 25 25 25 25 25 25 26 26 27 27 27 28 29 30 30 31 32 32 33 34 35 35 36 37
27 27 27 26 26 27 27 26 26 27 27 27 27 27 27 26 26 26 27 27 27 27 27 27 27 28 28 28 29 29 30 31 31 32 32 33 34 34 35 36 37 37 38 39
27 28 29 28 28 29 28 27 27 28 28 29 29 28 28 28 28 28 28 28 28 29 29 29 29 30 30 30 31 31 32 33 33 34 34 35 36 37 38 38 39 39 40 41
Wind_Direction
174 178 181 185 187 190 198 199 203 204 207 210 211 211 208 211 210 211 212 212 213 214 215 220 222 223 228 232 247 262 299 318 333 345 350 352 353 352 353 357 359 360 359 358
175 175 180 191 191 191 196 198 197 195 198 200 206 208 210 208 213 216 213 210 211 213 217 220 224 228 230 231 238 252 284 303 318 332 342 344 341 342 348 351 352 354 353 354
181 177 179 191 193 190 192 190 187 185 190 195 199 204 204 209 212 215 215 214 211 214 218 221 223 228 227 230 238 250 277 292 302 313 322 325 329 335 340 342 346 348 349 351
179 177 183 187 187 188 188 190 183 179 182 190 202 206 207 212 211 213 218 218 216 219 218 216 220 227 231 234 241 254 268 281 289 299 308 315 322 328 332 336 341 343 345 347
171 175 179 179 179 182 179 176 174 171 173 188 202 215 221 215 213 214 214 217 220 226 224 219 223 232 237 238 244 252 261 273 284 291 298 308 316 323 328 332 336 339 341 344
161 166 163 172 172 173 170 167 160 161 174 197 211 217 227 229 215 212 215 222 225 230 228 229 232 236 239 243 248 253 260 269 277 284 292 301 310 317 322 326 330 332 335 338
158 166 160 167 171 170 168 164 159 165 188 219 225 233 237 236 227 222 221 228 231 229 233 235 236 241 245 247 251 258 261 270 274 278 285 293 302 309 314 318 323 326 328 331
160 168 174 176 174 170 168 168 169 171 191 212 233 254 254 253 240 237 234 235 237 236 241 241 241 244 246 249 253 259 261 267 272 275 283 290 297 302 309 314 319 322 324 327
187 200 191 191 190 184 183 181 175 177 182 208 228 257 263 251 245 243 245 246 247 245 243 243 245 246 246 250 254 260 263 268 271 276 282 288 293 299 305 310 314 317 319 322
197 213 213 208 203 200 200 189 189 198 195 193 210 257 269 255 247 245 247 250 252 254 254 251 251 250 251 255 260 264 267 270 272 276 280 285 290 297 304 308 312 314 316 318
206 211 211 209 208 202 203 204 204 205 208 214 212 228 251 261 264 256 252 254 257 258 260 255 253 254 259 261 263 266 268 270 272 275 278 283 289 295 300 305 308 310 312 314
213 213 206 207 209 211 214 212 209 209 207 216 240 255 260 262 264 264 261 260 259 260 258 254 254 257 261 263 264 267 269 271 273 275 278 282 287 293 297 302 305 308 309 310
206 202 199 207 220 226 227 223 219 218 219 223 233 251 264 269 265 262 263 264 261 261 258 258 257 260 263 266 267 269 272 274 275 276 278 282 286 291 295 299 303 306 307 308
219 211 217 221 229 240 237 234 235 235 233 236 238 237 251 263 265 264 265 264 262 262 260 261 262 265 267 269 270 272 276 277 277 278 279 282 285 290 294 297 301 303 304 306
225 223 236 247 248 249 250 248 246 244 244 246 244 244 250 257 262 265 266 265 265 266 266 267 267 268 270 272 273 275 277 278 280 281 282 284 286 289 293 296 299 301 302 303
237 232 236 254 260 259 258 256 252 251 250 249 249 250 255 257 261 263 264 264 266 268 268 269 269 269 270 272 274 275 278 280 283 285 286 287 289 291 293 295 297 299 300 301
245 242 243 246 258 263 266 265 260 257 255 255 256 257 257 258 260 263 266 265 267 270 270 269 268 270 272 273 275 276 278 282 285 286 287 289 291 292 293 294 296 297 297 297
252 249 250 251 254 262 266 265 263 262 259 259 261 260 259 261 263 264 264 266 268 269 269 269 268 270 272 273 275 276 279 282 284 286 288 289 290 291 293 294 296 296 296 297
255 256 255 255 256 260 263 265 266 266 264 262 263 263 263 262 264 264 264 265 266 268 268 269 269 271 274 275 276 278 282 283 285 286 288 289 290 291 293 294 295 295 295 295
257 258 258 258 258 260 262 263 265 267 267 264 264 265 264 263 263 265 266 265 266 268 270 271 271 272 274 275 277 280 283 285 286 287 288 289 290 291 293 294 295 295 295 295
261 260 259 260 261 262 261 262 264 266 269 267 266 266 265 263 264 265 264 265 267 269 270 271 272 273 275 277 279 280 282 284 285 287 288 289 289 291 292 293 294 295 295 295
259 261 263 262 262 262 262 263 264 266 267 268 269 268 266 265 264 263 264 266 268 269 270 271 272 274 276 278 279 280 282 283 285 288 289 290 290 291 292 293 294 294 294 294
259 261 262 262 263 266 266 266 265 265 266 269 269 269 268 266 265 264 264 266 267 268 269 270 272 275 276 278 280 281 281 283 285 288 289 289 290 291 292 293 294 294 294 295
257 260 260 262 264 265 265 265 265 265 266 267 268 268 269 268 267 268 267 267 268 269 270 271 273 275 276 277 279 280 281 282 285 287 289 289 290 290 291 293 294 294 294 295
258 259 260 262 263 265 266 267 267 266 265 265 266 267 269 270 269 268 268 268 269 270 271 272 273 274 275 276 278 280 281 282 284 286 287 289 290 290 291 293 293 293 294 295
258 260 261 261 262 264 266 266 266 266 266 266 267 268 270 271 271 270 271 270 271 271 272 273 274 275 276 277 279 280 281 283 284 286 287 288 290 290 291 293 293 293 294 295
Height
5829 5833 5836 5839 5842 5845 5847 5849 5852 5856 5858 5861 5864 5866 5868 5870 5872 5874 5876 5878 5880 5882 5884 5885 5887 5888 5889 5890 5891 5891 5891 5892 5892 5892 5892 5892 5891 5891 5890 5889 5887 5886 5884 5882
5830 5833 5836 5838 5841 5844 5847 5849 5852 5855 5858 5861 5863 5865 5867 5869 5871 5873 5875 5877 5879 5881 5883 5884 5886 5887 5888 5889 5890 5890 5891 5891 5891 5892 5891 5891 5891 5891 5890 5888 5887 5886 5884 5882
5831 5834 5836 5839 5842 5845 5848 5850 5852 5855 5858 5861 5863 5866 5867 5869 5871 5873 5875 5876 5878 5880 5882 5883 5885 5886 5887 5888 5889 5890 5890 5890 5891 5891 5891 5891 5891 5890 5889 5888 5887 5885 5884 5882
5832 5835 5838 5840 5842 5845 5848 5850 5853 5856 5859 5861 5864 5865 5867 5868 5870 5872 5874 5875 5877 5879 5881 5882 5884 5885 5886 5887 5888 5889 5889 5890 5890 5890 5891 5890 5890 5889 5889 5887 5886 5885 5883 5881
5834 5836 5839 5841 5843 5846 5848 5851 5854 5856 5859 5862 5863 5865 5867 5868 5870 5872 5873 5875 5877 5878 5880 5881 5882 5884 5885 5886 5887 5888 5888 5889 5889 5889 5890 5889 5889 5888 5887 5886 5885 5884 5882 5880
5836 5838 5839 5841 5844 5847 5849 5852 5854 5857 5859 5862 5864 5865 5867 5867 5869 5871 5873 5874 5876 5877 5879 5880 5881 5882 5883 5885 5885 5886 5887 5887 5888 5888 5888 5888 5888 5887 5886 5885 5884 5883 5881 5879
5838 5839 5841 5843 5846 5848 5850 5853 5856 5858 5860 5863 5864 5865 5867 5867 5868 5870 5872 5873 5875 5876 5877 5879 5880 5881 5882 5883 5884 5885 5885 5886 5887 5887 5887 5887 5886 5886 5885 5884 5883 5881 5880 5878
5840 5842 5843 5845 5847 5849 5851 5853 5857 5859 5861 5863 5864 5865 5866 5866 5868 5869 5871 5872 5873 5875 5876 5877 5878 5879 5880 5881 5882 5883 5884 5884 5885 5885 5885 5885 5885 5884 5883 5882 5881 5879 5878 5876
5841 5843 5844 5846 5847 5849 5851 5853 5856 5858 5860 5862 5863 5865 5865 5866 5867 5868 5869 5871 5872 5873 5874 5875 5876 5877 5878 5879 5880 5881 5882 5882 5883 5883 5883 5883 5882 5882 5881 5880 5878 5877 5875 5873
5841 5843 5844 5846 5848 5850 5851 5853 5856 5858 5859 5861 5863 5864 5865 5865 5866 5867 5868 5869 5870 5871 5872 5873 5874 5875 5876 5877 5878 5878 5879 5880 5880 5881 5881 5880 5880 5879 5878 5877 5876 5874 5873 5871
5841 5843 5845 5846 5848 5849 5852 5853 5855 5856 5858 5860 5861 5864 5863 5864 5865 5866 5867 5867 5868 5869 5870 5871 5872 5873 5874 5875 5875 5876 5876 5877 5877 5877 5878 5877 5877 5876 5875 5874 5873 5871 5870 5868
5841 5842 5843 5845 5847 5849 5850 5852 5854 5856 5857 5859 5860 5863 5861 5862 5863 5864 5865 5865 5866 5867 5868 5868 5869 5870 5871 5872 5872 5873 5873 5873 5874 5874 5874 5874 5874 5873 5872 5871 5869 5868 5866 5864
5841 5842 5843 5845 5848 5848 5849 5850 5852 5854 5855 5857 5859 5862 5859 5860 5861 5861 5862 5863 5864 5864 5865 5866 5867 5868 5868 5869 5869 5869 5870 5870 5870 5870 5870 5870 5870 5869 5868 5867 5865 5864 5862 5860
5841 5842 5843 5844 5845 5846 5847 5849 5851 5853 5854 5855 5856 5858 5857 5858 5858 5859 5860 5860 5861 5862 5862 5863 5864 5864 5865 5865 5866 5866 5866 5866 5866 5866 5866 5866 5865 5865 5864 5863 5861 5859 5858 5856
5840 5841 5842 5843 5844 5845 5846 5847 5849 5850 5851 5852 5854 5854 5855 5855 5855 5856 5857 5857 5858 5858 5859 5860 5860 5861 5861 5861 5862 5862 5862 5862 5862 5862 5861 5861 5861 5860 5859 5858 5856 5855 5853 5851
5838 5840 5841 5842 5842 5843 5844 5846 5847 5847 5848 5849 5850 5852 5852 5852 5852 5853 5853 5854 5854 5855 5855 5856 5856 5857 5857 5857 5858 5858 5858 5858 5857 5857 5857 5856 5855 5855 5854 5852 5851 5849 5847 5845
5836 5837 5838 5839 5840 5841 5842 5843 5843 5844 5845 5846 5847 5849 5848 5848 5849 5849 5849 5850 5851 5851 5851 5852 5852 5852 5853 5853 5853 5853 5853 5853 5852 5852 5852 5851 5850 5849 5848 5846 5845 5843 5841 5839
5833 5834 5835 5836 5838 5838 5841 5840 5840 5841 5841 5842 5843 5843 5844 5844 5845 5845 5845 5846 5846 5847 5847 5847 5847 5848 5848 5848 5848 5848 5848 5848 5847 5847 5846 5845 5844 5843 5841 5840 5838 5837 5835 5832
5830 5830 5831 5832 5833 5834 5836 5835 5836 5836 5837 5838 5838 5839 5839 5839 5840 5840 5841 5841 5842 5842 5842 5842 5842 5843 5843 5843 5843 5842 5842 5842 5841 5841 5840 5839 5838 5836 5835 5833 5831 5830 5828 5825
5826 5826 5827 5828 5829 5830 5831 5831 5831 5833 5832 5833 5833 5833 5834 5834 5835 5835 5836 5836 5837 5837 5837 5837 5837 5837 5837 5837 5837 5837 5836 5836 5835 5834 5833 5832 5831 5829 5828 5826 5824 5822 5820 5818
5821 5822 5822 5823 5823 5824 5825 5826 5827 5829 5829 5828 5828 5828 5828 5829 5830 5831 5830 5831 5831 5832 5832 5832 5832 5832 5831 5831 5831 5830 5830 5829 5828 5827 5826 5825 5824 5822 5821 5819 5817 5814 5812 5810
5816 5817 5817 5818 5818 5820 5820 5821 5822 5822 5822 5822 5822 5823 5823 5823 5824 5824 5825 5825 5826 5826 5826 5826 5826 5826 5825 5825 5824 5824 5823 5822 5821 5821 5819 5818 5816 5815 5813 5811 5808 5806 5803 5801
5810 5812 5812 5813 5814 5813 5814 5815 5816 5816 5816 5816 5817 5817 5817 5817 5818 5818 5819 5819 5819 5820 5820 5820 5819 5819 5819 5818 5817 5817 5816 5815 5814 5813 5811 5810 5808 5806 5804 5802 5799 5797 5794 5792
5805 5805 5805 5806 5807 5807 5807 5808 5809 5809 5810 5810 5810 5811 5811 5811 5812 5812 5812 5812 5813 5813 5813 5813 5813 5812 5812 5811 5810 5809 5808 5807 5806 5805 5803 5801 5799 5797 5795 5793 5790 5787 5785 5782
5798 5798 5799 5800 5800 5800 5801 5802 5802 5802 5803 5803 5804 5804 5804 5804 5805 5805 5805 5805 5805 5805 5805 5805 5805 5804 5804 5803 5802 5801 5800 5798 5797 5796 5794 5792 5790 5788 5786 5783 5780 5777 5774 5771
5791 5791 5792 5792 5793 5793 5794 5794 5795 5795 5795 5796 5796 5797 5797 5797 5797 5797 5797 5797 5797 5797 5797 5796 5796 5795 5795 5794 5793 5792 5791 5789 5788 5786 5784 5782 5780 5778 5775 5772 5770 5766 5763 5760